CDT,Max TemperatureF,Mean TemperatureF,Min TemperatureF,Max Dew PointF,MeanDew PointF,Min DewpointF,Max Humidity, Mean Humidity, Min Humidity, Max Sea Level PressureIn, Mean Sea Level PressureIn, Min Sea Level PressureIn, Max VisibilityMiles, Mean VisibilityMiles, Min VisibilityMiles, Max Wind SpeedMPH, Mean Wind SpeedMPH, Max Gust SpeedMPH,PrecipitationIn, CloudCover, Events, WindDirDegrees
2013-4-1,41,33,24,18,15,13,68,50,32,30.33,30.27,30.12,10,10,10,20,10,25,0.00,1,,337
2013-4-2,49,36,22,22,18,14,81,53,24,30.38,30.34,30.32,10,10,10,17,7,23,0.00,0,,343
2013-4-3,53,41,29,41,20,18,75,51,27,30.44,30.36,30.28,10,10,10,14,7,19,0.00,5,,123
2013-4-4,65,49,32,36,26,18,59,43,26,30.26,30.14,30.04,10,10,10,18,10,24,0.00,1,,278
2013-4-5,63,49,35,35,29,24,70,48,26,30.21,30.08,29.84,10,10,10,23,13,29,0.00,6,,108
2013-4-6,71,60,49,45,40,36,68,54,40,29.83,29.68,29.55,10,10,10,28,16,34,T,6,Rain,215
2013-4-7,70,53,35,45,38,33,92,64,36,29.95,29.86,29.69,10,6,0,17,9,21,T,6,Fog-Rain,66
2013-4-8,74,61,47,56,51,45,96,70,44,29.79,29.71,29.62,10,8,1,20,7,25,0.22,6,Fog-Rain,177
2013-4-9,70,57,43,61,52,41,93,89,84,29.86,29.75,29.70,10,6,1,25,12,32,0.61,8,Rain-Thunderstorm,59
2013-4-10,43,42,40,41,38,37,93,88,82,29.96,29.86,29.74,10,6,1,32,11,37,1.18,8,Rain-Thunderstorm,43
2013-4-11,42,40,37,39,36,32,93,86,79,29.73,29.64,29.60,10,6,1,23,11,29,0.19,8,Rain-Snow,237
2013-4-12,41,38,35,34,29,24,85,72,59,29.99,29.80,29.62,10,10,8,25,17,32,T,8,Snow,290
2013-4-13,54,42,30,34,27,22,72,57,42,30.03,29.95,29.83,10,10,9,20,10,24,T,5,Snow,272
2013-4-14,70,58,45,53,45,35,93,77,60,29.81,29.58,29.43,10,9,2,32,15,43,0.15,8,Rain,160
2013-4-15,49,44,39,41,32,27,85,67,49,30.08,29.88,29.68,10,10,10,23,10,27,0.01,5,Rain,285
2013-4-16,53,43,33,32,30,27,75,60,44,30.26,30.19,30.08,10,10,10,18,10,23,0.00,6,,17
2013-4-17,50,46,42,46,40,33,96,76,56,30.21,29.92,29.65,10,6,1,35,13,43,3.14,8,Rain-Thunderstorm,66
2013-4-18,43,39,35,41,35,28,96,86,75,29.76,29.63,29.54,10,6,1,31,18,41,0.72,8,Rain-Snow,330
2013-4-19,46,39,31,28,24,22,75,57,38,30.10,29.86,29.70,10,10,7,36,22,43,T,5,Snow,304
2013-4-20,50,38,26,26,22,16,81,55,28,30.30,30.24,30.12,10,10,10,16,7,20,0.00,3,,349
2013-4-21,69,56,43,45,36,26,62,46,29,30.26,30.18,30.08,10,10,6,30,13,40,0.15,7,Rain,156
2013-4-22,68,53,37,50,45,35,96,69,42,30.18,30.06,29.92,10,9,5,26,12,35,0.16,8,Rain,168
2013-4-23,45,39,33,33,28,20,85,66,46,30.17,30.12,30.08,10,10,8,24,15,33,T,8,Rain-Snow,349
2013-4-24,56,42,28,38,26,20,78,53,27,30.20,30.14,30.05,10,10,10,28,12,40,T,3,Rain,267
2013-4-25,63,48,32,35,30,27,82,56,30,30.30,30.21,30.14,10,10,10,17,9,24,0.00,1,,230
2013-4-26,68,58,48,48,43,36,80,64,48,30.21,30.15,30.10,10,10,10,30,14,37,0.00,6,,188
2013-4-27,69,57,44,46,44,41,92,66,40,30.23,30.12,30.00,10,10,7,16,6,21,0.00,2,,153
2013-4-28,76,61,45,51,47,42,86,62,38,30.00,29.87,29.76,10,10,7,17,10,22,0.00,4,,199
2013-4-29,82,69,56,61,54,50,83,64,45,29.78,29.68,29.56,10,10,10,21,8,27,T,5,Thunderstorm,171
2013-4-30,86,73,60,61,53,45,64,51,37,29.84,29.65,29.55,10,10,10,31,17,40,0.00,6,Thunderstorm,219